When you browse on this site, cookies collect data to enhance your experience and personalize the content and advertising you see.
Visit our Privacy Policy to learn more. By continuing to use the site, you agree to this use of cookies and data.
  • In Austria
  • List of Countries
  • For 7 days
  • Water Temperature
  • Weather Map
  • News
  • Weather Widgets
  • user-avatar
    Login

    Hourly Weather Khulna

    Today, 20 February, Thursday

    Time Temperature Precipitation Wind Pressure Humidity
    00:00 +21°C° 0 mm 1 mps 761 mmHg 60%
    01:00 +20°C° 0 mm 1 mps 760 mmHg 63%
    02:00 +20°C° 0 mm 1 mps 760 mmHg 65%
    03:00 +20°C° 0 mm 1 mps 760 mmHg 67%
    04:00 +20°C° 0 mm 1 mps 760 mmHg 69%
    05:00 +19°C° 0 mm 1 mps 760 mmHg 71%
    06:00 +19°C° 0 mm 1 mps 760 mmHg 84%
    07:00 +21°C° 0 mm 1 mps 761 mmHg 75%
    08:00 +24°C° 0 mm 1 mps 762 mmHg 66%
    09:00 +26°C° 0 mm 1 mps 762 mmHg 56%
    10:00 +28°C° 0 mm 1 mps 762 mmHg 47%
    11:00 +31°C° 0 mm 1 mps 762 mmHg 37%
    12:00 +33°C° 0 mm 1 mps 762 mmHg 26%
    13:00 +33°C° 0 mm 1 mps 761 mmHg 25%
    14:00 +33°C° 0 mm 1 mps 760 mmHg 23%
    15:00 +33°C° 0 mm 1 mps 760 mmHg 21%
    16:00 +31°C° 0 mm 1 mps 760 mmHg 25%
    17:00 +30°C° 0 mm 1 mps 759 mmHg 28%
    18:00 +28°C° 0 mm 1 mps 759 mmHg 32%
    19:00 +26°C° 0 mm 2 mps 760 mmHg 38%
    20:00 +25°C° 0 mm 2 mps 760 mmHg 45%
    21:00 +23°C° 0 mm 2 mps 761 mmHg 52%
    22:00 +21°C° 0 mm 2 mps 761 mmHg 55%
    23:00 +21°C° 0 mm 2 mps 761 mmHg 58%

    Tomorrow, 21 February, Friday

    Time Temperature Precipitation Wind Pressure Humidity
    00:00 +21°C° 0 mm 1 mps 761 mmHg 62%
    01:00 +21°C° 0 mm 1 mps 761 mmHg 61%
    02:00 +21°C° 0 mm 1 mps 761 mmHg 61%
    03:00 +20°C° 0 mm 1 mps 760 mmHg 60%
    04:00 +20°C° 0 mm 1 mps 761 mmHg 61%
    05:00 +20°C° 0 mm 1 mps 761 mmHg 62%
    06:00 +20°C° 0 mm 1 mps 761 mmHg 63%
    07:00 +22°C° 0 mm 1 mps 762 mmHg 57%
    08:00 +24°C° 0 mm 1 mps 763 mmHg 50%
    09:00 +26°C° 0 mm 1 mps 763 mmHg 44%
    10:00 +28°C° 0 mm 1 mps 763 mmHg 38%
    11:00 +31°C° 0 mm 1 mps 763 mmHg 31%
    12:00 +33°C° 0 mm 1 mps 763 mmHg 25%
    19:00 +27°C° 0 mm 2 mps 761 mmHg 29%
    20:00 +26°C° 0 mm 2 mps 762 mmHg 31%
    21:00 +25°C° 0 mm 1 mps 762 mmHg 32%
    22:00 +24°C° 0 mm 1 mps 762 mmHg 37%
    23:00 +23°C° 0 mm 1 mps 762 mmHg 41%

    Day after tomorrow, 22 February, Saturday

    Time Temperature Precipitation Wind Pressure Humidity
    00:00 +22°C° 0 mm 1 mps 762 mmHg 45%
    01:00 +22°C° 0 mm 1 mps 762 mmHg 45%
    02:00 +21°C° 0 mm 1 mps 762 mmHg 46%
    03:00 +19°C° 0 mm 0 mps 761 mmHg 46%
    04:00 +19°C° 0 mm 0 mps 761 mmHg 45%
    05:00 +18°C° 0 mm 0 mps 761 mmHg 45%
    06:00 +18°C° 0 mm 0 mps 762 mmHg 45%
    07:00 +22°C° 0 mm 1 mps 762 mmHg 39%
    08:00 +25°C° 0 mm 1 mps 763 mmHg 33%
    09:00 +28°C° 0 mm 1 mps 763 mmHg 28%
    10:00 +30°C° 0 mm 1 mps 763 mmHg 25%
    11:00 +32°C° 0 mm 2 mps 763 mmHg 23%
    12:00 +35°C° 0 mm 2 mps 762 mmHg 21%
    13:00 +35°C° 0 mm 2 mps 761 mmHg 20%
    14:00 +36°C° 0 mm 3 mps 760 mmHg 19%
    15:00 +36°C° 0 mm 3 mps 760 mmHg 18%
    16:00 +35°C° 0 mm 3 mps 760 mmHg 22%
    17:00 +32°C° 0 mm 2 mps 760 mmHg 25%
    18:00 +30°C° 0 mm 2 mps 760 mmHg 28%
    19:00 +28°C° 0 mm 2 mps 760 mmHg 31%
    20:00 +27°C° 0 mm 2 mps 761 mmHg 35%
    21:00 +25°C° 0 mm 1 mps 761 mmHg 38%
    22:00 +25°C° 0 mm 1 mps 761 mmHg 41%
    23:00 +24°C° 0 mm 1 mps 761 mmHg 43%

    23 February, Sunday

    Time Temperature Precipitation Wind Pressure Humidity
    00:00 +23°C° 0 mm 1 mps 761 mmHg 45%
    01:00 +23°C° 0 mm 1 mps 761 mmHg 46%
    02:00 +22°C° 0 mm 1 mps 760 mmHg 47%
    03:00 +22°C° 0 mm 1 mps 760 mmHg 48%
    04:00 +22°C° 0 mm 1 mps 760 mmHg 49%
    05:00 +21°C° 0 mm 1 mps 760 mmHg 50%
    06:00 +21°C° 0 mm 1 mps 760 mmHg 51%
    07:00 +24°C° 0 mm 1 mps 761 mmHg 45%
    08:00 +26°C° 0 mm 1 mps 761 mmHg 40%
    09:00 +29°C° 0 mm 2 mps 762 mmHg 35%
    10:00 +31°C° 0 mm 1 mps 762 mmHg 30%
    11:00 +34°C° 0 mm 1 mps 761 mmHg 26%
    12:00 +34°C° 0 mm 0 mps 761 mmHg 22%
    13:00 +36°C° 0 mm 1 mps 760 mmHg 22%
    14:00 +36°C° 0 mm 1 mps 759 mmHg 21%
    15:00 +36°C° 0 mm 1 mps 758 mmHg 20%
    16:00 +34°C° 0 mm 1 mps 758 mmHg 23%
    17:00 +33°C° 0 mm 1 mps 758 mmHg 26%
    18:00 +31°C° 0 mm 1 mps 758 mmHg 29%
    19:00 +29°C° 0 mm 2 mps 758 mmHg 33%
    20:00 +28°C° 0 mm 2 mps 759 mmHg 38%
    21:00 +26°C° 0 mm 3 mps 759 mmHg 42%
    22:00 +25°C° 0 mm 2 mps 759 mmHg 43%
    23:00 +24°C° 0 mm 2 mps 759 mmHg 45%

    24 February, Monday

    Time Temperature Precipitation Wind Pressure Humidity
    00:00 +24°C° 0 mm 2 mps 759 mmHg 46%
    01:00 +23°C° 0 mm 2 mps 759 mmHg 45%
    02:00 +23°C° 0 mm 2 mps 758 mmHg 45%
    03:00 +23°C° 0 mm 2 mps 758 mmHg 44%
    04:00 +21°C° 0 mm 2 mps 758 mmHg 44%
    05:00 +21°C° 0 mm 2 mps 758 mmHg 44%
    06:00 +21°C° 0 mm 1 mps 758 mmHg 45%
    07:00 +23°C° 0 mm 1 mps 759 mmHg 41%
    08:00 +26°C° 0 mm 1 mps 760 mmHg 38%
    09:00 +28°C° 0 mm 1 mps 760 mmHg 34%
    10:00 +30°C° 0 mm 1 mps 760 mmHg 30%
    11:00 +32°C° 0 mm 1 mps 760 mmHg 25%
    12:00 +35°C° 0 mm 1 mps 759 mmHg 21%
    13:00 +35°C° 0 mm 1 mps 759 mmHg 21%
    14:00 +35°C° 0 mm 1 mps 758 mmHg 20%
    15:00 +36°C° 0 mm 1 mps 757 mmHg 20%
    16:00 +34°C° 0 mm 1 mps 757 mmHg 23%
    17:00 +32°C° 0 mm 1 mps 757 mmHg 26%
    18:00 +31°C° 0 mm 2 mps 757 mmHg 29%
    19:00 +29°C° 0 mm 2 mps 757 mmHg 36%
    20:00 +27°C° 0 mm 2 mps 757 mmHg 42%
    21:00 +26°C° 0 mm 3 mps 758 mmHg 49%
    22:00 +25°C° 0 mm 2 mps 758 mmHg 52%
    23:00 +24°C° 0 mm 2 mps 758 mmHg 55%

    25 February, Tuesday

    Time Temperature Precipitation Wind Pressure Humidity
    00:00 +23°C° 0 mm 2 mps 757 mmHg 58%
    01:00 +23°C° 0 mm 2 mps 757 mmHg 61%
    02:00 +21°C° 0 mm 2 mps 757 mmHg 65%
    03:00 +21°C° 0 mm 2 mps 757 mmHg 68%
    04:00 +21°C° 0 mm 2 mps 757 mmHg 70%
    05:00 +20°C° 0 mm 2 mps 757 mmHg 71%
    06:00 +21°C° 0 mm 1 mps 757 mmHg 73%
    07:00 +23°C° 0 mm 2 mps 758 mmHg 63%
    08:00 +25°C° 0 mm 2 mps 758 mmHg 54%
    09:00 +27°C° 0 mm 3 mps 759 mmHg 45%
    10:00 +29°C° 0 mm 3 mps 759 mmHg 40%
    11:00 +31°C° 0 mm 3 mps 759 mmHg 35%
    12:00 +34°C° 0 mm 4 mps 759 mmHg 30%
    13:00 +34°C° 0 mm 5 mps 758 mmHg 32%
    14:00 +33°C° 0 mm 5 mps 757 mmHg 35%
    15:00 +32°C° 0 mm 6 mps 757 mmHg 38%
    16:00 +29°C° 0 mm 5 mps 757 mmHg 43%
    17:00 +27°C° 0 mm 5 mps 757 mmHg 49%
    18:00 +25°C° 0 mm 5 mps 757 mmHg 54%
    19:00 +25°C° 0 mm 3 mps 758 mmHg 54%
    20:00 +25°C° 0 mm 2 mps 758 mmHg 53%
    21:00 +24°C° 0 mm 1 mps 758 mmHg 53%
    22:00 +24°C° 0 mm 1 mps 758 mmHg 56%
    23:00 +23°C° 0 mm 1 mps 758 mmHg 60%
    Show more